COSMOS 2514 (751)

Last updated on Mon Nov 03 2025 00:03:33 GMT+0000 (Coordinated Universal Time)

1 41330U 16008A 25305.69393744 -.00000003 00000+0 00000+0 0 9998 2 41330 65.1564 320.8107 0013298 217.5457 142.4133 2.13102499 75770
UTC large
Height (km)
Speed (km/s)
/
Latitude / Longitude
Inclination (degrees)
Orbital Period (minutes)
Azimuth
Elevation
Range (km)
Doppler Factor

Next 0 passes for location: London (51.5072 / 0.1276)

Sorry there are no passes over London.